Starlink 11318

operational
NORAD ID: 61252 Int'l Des: 2024-175 Owner: SPXS Country: US Constellation: starlink
LEOCIRCULAR

关于 Starlink 11318

正在加载描述...

实时位置

正在加载3D地球...

即将过境

高度历史

Altitude vs Time

uPlot chart will show altitude changes over time

两行轨道根数

1 61252U 24175K 25259.55773230 -.00002648 00000-0 -17020-4 0 9996
2 61252 53.1591 194.9224 0001432 87.1826 272.9356 15.69683186 57183
Epoch: Sep 16, 2025 • Age: 15 hours

当前状态

高度 363.4 km
速度 7.69 km/s
星下点 -12.48°S, 34.44°W
发射日期 Sep 25, 2024
运行时间 0.9 years
类型 internet

技术详情

分类 Payload
质量 960.00 kg
干质量 910.00 kg
总质量 960.00 kg
长度 0.30 m
直径 4.10 m
跨度 29.00 m
形状 Box + pan
制造商 SPXS
平台类型 Starlink V2MD
阶段状态 In Orbit
所有者/国家 SPXS/US

大型星座

Loading constellations...